| time (UTC) | temp C | wind direction | speed KPH | gust KPH | rain 1hr cm | rain 24hr cm | rain mn cm | humidity % | barometer mb |
| 20260510113532 | 18 | 74 | 9.7 | 27.4 | 0.00 | 0.00 | 0.00 | 57 | 1013.1 |
| 20260510112532 | 18 | 17 | 6.4 | 17.7 | 0.00 | 0.00 | 0.00 | 59 | 1013.0 |
| 20260510111531 | 17 | 32 | 6.4 | 20.9 | 0.00 | 0.00 | 0.00 | 62 | 1013.2 |
| 20260510110530 | 17 | 126 | 6.4 | 16.1 | 0.00 | 0.00 | 0.00 | 60 | 1013.3 |
| 20260510105533 | 17 | 244 | 4.8 | 17.7 | 0.00 | 0.00 | 0.00 | 59 | 1013.5 |
| 20260510105013 | 17 | 54 | 8.0 | 19.3 | 0.00 | 0.00 | 0.00 | 59 | 1013.6 |
| 20260510103530 | 17 | 49 | 8.0 | 20.9 | 0.00 | 0.00 | 0.00 | 57 | 1013.7 |
| 20260510102531 | 17 | 59 | 9.7 | 22.5 | 0.00 | 0.00 | 0.00 | 59 | 1013.6 |
| 20260510101530 | 17 | 52 | 8.0 | 17.7 | 0.00 | 0.00 | 0.00 | 58 | 1013.8 |
| 20260510100531 | 17 | 22 | 6.4 | 17.7 | 0.00 | 0.00 | 0.00 | 57 | 1013.9 |
| 20260510095530 | 17 | 277 | 4.8 | 12.9 | 0.00 | 0.00 | 0.00 | 58 | 1013.9 |
| 20260510094531 | 17 | 344 | 6.4 | 20.9 | 0.00 | 0.00 | 0.00 | 58 | 1013.9 |
| 20260510093532 | 17 | 25 | 6.4 | 14.5 | 0.00 | 0.00 | 0.00 | 57 | 1014.1 |
| 20260510092531 | 17 | 12 | 6.4 | 20.9 | 0.00 | 0.00 | 0.00 | 58 | 1014.2 |
| 20260510091532 | 17 | 283 | 4.8 | 16.1 | 0.00 | 0.00 | 0.00 | 60 | 1014.2 |
| 20260510090529 | 16 | 60 | 6.4 | 17.7 | 0.00 | 0.00 | 0.00 | 59 | 1014.3 |
| 20260510085529 | 16 | 123 | 4.8 | 12.9 | 0.00 | 0.00 | 0.00 | 63 | 1014.2 |
| 20260510083526 | 16 | 28 | 6.4 | 17.7 | 0.00 | 0.00 | 0.00 | 66 | 1014.4 |
| 20260510082526 | 16 | 333 | 6.4 | 20.9 | 0.00 | 0.00 | 0.00 | 66 | 1014.5 |
| 20260510081524 | 16 | 182 | 4.8 | 12.9 | 0.00 | 0.00 | 0.00 | 69 | 1014.6 |
| 20260510080515 | 15 | 355 | 6.4 | 17.7 | 0.00 | 0.00 | 0.00 | 68 | 1014.6 |
| 20260510075514 | 15 | 78 | 6.4 | 19.3 | 0.00 | 0.00 | 0.00 | 70 | 1014.7 |
| 20260510074509 | 15 | 317 | 6.4 | 17.7 | 0.00 | 0.00 | 0.00 | 70 | 1014.8 |
| 20260510073511 | 15 | 345 | 6.4 | 14.5 | 0.00 | 0.00 | 0.00 | 72 | 1014.8 |
| 20260510072510 | 14 | 38 | 6.4 | 17.7 | 0.00 | 0.00 | 0.00 | 73 | 1014.7 |
| 20260510071505 | 14 | 74 | 4.8 | 14.5 | 0.00 | 0.00 | 0.00 | 75 | 1014.8 |
| 20260510070505 | 13 | 35 | 4.8 | 12.9 | 0.00 | 0.00 | 0.00 | 76 | 1014.8 |
| 20260510065505 | 13 | 76 | 4.8 | 11.3 | 0.00 | 0.00 | 0.00 | 77 | 1014.9 |
| 20260510064505 | 13 | 45 | 3.2 | 12.9 | 0.00 | 0.00 | 0.00 | 79 | 1014.8 |
| 20260510063507 | 13 | 333 | 3.2 | 8.0 | 0.00 | 0.00 | 0.00 | 81 | 1014.9 |
| 20260510062506 | 12 | 30 | 3.2 | 14.5 | 0.00 | 0.00 | 0.00 | 83 | 1014.8 |
| 20260510061455 | 12 | 45 | 1.6 | 9.7 | 0.00 | 0.00 | 0.00 | 85 | 1014.9 |
| 20260510060456 | 11 | 53 | 3.2 | 11.3 | 0.00 | 0.00 | 0.00 | 88 | 1014.9 |
| 20260510055453 | 11 | 70 | 3.2 | 11.3 | 0.00 | 0.00 | 0.00 | 89 | 1014.9 |
| 20260510054452 | 11 | 307 | 3.2 | 8.0 | 0.00 | 0.00 | 0.00 | 90 | 1014.8 |
| 20260510053451 | 10 | 28 | 1.6 | 9.7 | 0.00 | 0.00 | 0.00 | 91 | 1014.9 |
| 20260510052449 | 10 | 25 | 3.2 | 8.0 | 0.00 | 0.00 | 0.00 | 91 | 1014.8 |
| 20260510051450 | 10 | 40 | 1.6 | 4.8 | 0.00 | 0.00 | 0.00 | 92 | 1014.8 |
| 20260510050449 | 10 | 118 | 1.6 | 6.4 | 0.00 | 0.00 | 0.00 | 92 | 1014.7 |
| 20260510045929 | 10 | 0 | 1.6 | 8.0 | 0.00 | 0.00 | 0.00 | 92 | 1014.7 |
| 20260510044449 | 10 | 329 | 1.6 | 8.0 | 0.00 | 0.00 | 0.00 | 93 | 1014.8 |
| 20260510043449 | 9 | 331 | 1.6 | 8.0 | 0.00 | 0.00 | 0.00 | 93 | 1014.9 |
| 20260510042449 | 9 | 22 | 1.6 | 4.8 | 0.00 | 0.00 | 0.00 | 92 | 1014.8 |
| 20260510041449 | 9 | 48 | 1.6 | 4.8 | 0.00 | 0.00 | 0.00 | 92 | 1014.9 |
| 20260510040449 | 10 | 46 | 0.0 | 6.4 | 0.00 | 0.00 | 0.00 | 91 | 1014.8 |
| 20260510035449 | 10 | 14 | 1.6 | 6.4 | 0.00 | 0.00 | 0.00 | 91 | 1014.8 |
| 20260510034448 | 10 | 11 | 1.6 | 11.3 | 0.00 | 0.00 | 0.00 | 91 | 1014.8 |
| 20260510033448 | 10 | 323 | 1.6 | 8.0 | 0.00 | 0.00 | 0.00 | 91 | 1014.8 |
| 20260510032449 | 10 | 263 | 1.6 | 9.7 | 0.00 | 0.00 | 0.00 | 91 | 1014.7 |
| 20260510031445 | 10 | 346 | 1.6 | 6.4 | 0.00 | 0.00 | 0.00 | 91 | 1014.7 |
| 20260510030931 | 10 | 349 | 1.6 | 6.4 | 0.00 | 0.00 | 0.00 | 91 | 1014.7 |
| 20260510025447 | 10 | 213 | 1.6 | 6.4 | 0.00 | 0.00 | 0.00 | 92 | 1014.8 |
| 20260510024447 | 10 | 355 | 1.6 | 4.8 | 0.00 | 0.00 | 0.00 | 92 | 1014.8 |
| 20260510023446 | 9 | 348 | 1.6 | 4.8 | 0.00 | 0.00 | 0.00 | 92 | 1014.8 |
| 20260510022443 | 9 | 349 | 1.6 | 6.4 | 0.00 | 0.00 | 0.00 | 93 | 1014.9 |
| 20260510021443 | 9 | 350 | 0.0 | 4.8 | 0.00 | 0.00 | 0.00 | 92 | 1014.9 |
| 20260510020445 | 10 | 355 | 0.0 | 1.6 | 0.00 | 0.00 | 0.00 | 92 | 1015.0 |
| 20260510015444 | 10 | 355 | 0.0 | 1.6 | 0.00 | 0.00 | 0.00 | 92 | 1015.1 |
| 20260510013445 | 10 | 351 | 0.0 | 3.2 | 0.00 | 0.00 | 0.00 | 91 | 1015.3 |
| 20260510012443 | 10 | 351 | 0.0 | 3.2 | 0.00 | 0.00 | 0.00 | 90 | 1015.1 |
| 20260510011443 | 10 | 348 | 0.0 | 4.8 | 0.00 | 0.00 | 0.00 | 90 | 1015.0 |
| 20260510010442 | 10 | 323 | 1.6 | 6.4 | 0.00 | 0.00 | 0.00 | 90 | 1015.0 |
| 20260510005443 | 11 | 325 | 0.0 | 4.8 | 0.00 | 0.00 | 0.00 | 90 | 1015.1 |
| 20260510004441 | 11 | 323 | 1.6 | 4.8 | 0.00 | 0.00 | 0.00 | 90 | 1015.2 |
| 20260510003439 | 11 | 311 | 1.6 | 3.2 | 0.00 | 0.00 | 0.00 | 90 | 1015.3 |
| 20260510002437 | 11 | 306 | 1.6 | 6.4 | 0.00 | 0.00 | 0.00 | 90 | 1015.4 |
| 20260510000440 | 11 | 25 | 0.0 | 4.8 | 0.00 | 0.00 | 0.00 | 89 | 1015.5 |
| 20260509235437 | 11 | 24 | 0.0 | 1.6 | 0.00 | 0.00 | 0.00 | 89 | 1015.5 |
| 20260509234437 | 11 | 24 | 0.0 | 3.2 | 0.00 | 0.00 | 0.00 | 88 | 1015.6 |
| 20260509233433 | 11 | 24 | 0.0 | 3.2 | 0.00 | 0.00 | 0.00 | 88 | 1015.6 |
| 20260509232432 | 11 | 24 | 1.6 | 3.2 | 0.00 | 0.00 | 0.00 | 88 | 1015.6 |
| 20260509231431 | 11 | 28 | 0.0 | 4.8 | 0.00 | 0.00 | 0.00 | 87 | 1015.6 |
| 20260509230431 | 11 | 26 | 0.0 | 3.2 | 0.00 | 0.00 | 0.00 | 86 | 1015.7 |
| 20260509225431 | 11 | 26 | 1.6 | 6.4 | 0.00 | 0.00 | 0.00 | 86 | 1015.7 |
| 20260509224430 | 11 | 24 | 0.0 | 1.6 | 0.00 | 0.00 | 0.00 | 85 | 1015.7 |
| 20260509223429 | 11 | 22 | 0.0 | 3.2 | 0.00 | 0.00 | 0.00 | 84 | 1015.7 |
| 20260509222429 | 11 | 22 | 0.0 | 3.2 | 0.00 | 0.00 | 0.00 | 83 | 1015.7 |
| 20260509221429 | 11 | 22 | 0.0 | 3.2 | 0.00 | 0.00 | 0.00 | 82 | 1015.7 |
| 20260509220429 | 12 | 21 | 0.0 | 3.2 | 0.00 | 0.00 | 0.00 | 81 | 1015.7 |
| 20260509215429 | 12 | 19 | 0.0 | 4.8 | 0.00 | 0.00 | 0.00 | 80 | 1015.7 |
| 20260509214918 | 12 | 21 | 0.0 | 3.2 | 0.00 | 0.00 | 0.00 | 79 | 1015.7 |
| 20260509213425 | 12 | 21 | 1.6 | 4.8 | 0.00 | 0.00 | 0.00 | 78 | 1015.6 |
| 20260509212425 | 12 | 22 | 1.6 | 4.8 | 0.00 | 0.00 | 0.00 | 78 | 1015.7 |
| 20260509211424 | 12 | 34 | 0.0 | 3.2 | 0.00 | 0.00 | 0.00 | 78 | 1015.6 |
| 20260509210425 | 12 | 35 | 0.0 | 3.2 | 0.00 | 0.00 | 0.00 | 78 | 1015.5 |
| 20260509205424 | 12 | 33 | 0.0 | 3.2 | 0.00 | 0.00 | 0.00 | 78 | 1015.6 |
| 20260509204856 | 12 | 32 | 0.0 | 3.2 | 0.00 | 0.00 | 0.00 | 78 | 1015.7 |
| 20260509203424 | 12 | 32 | 0.0 | 6.4 | 0.00 | 0.00 | 0.00 | 77 | 1015.7 |
| 20260509202425 | 12 | 49 | 0.0 | 1.6 | 0.00 | 0.00 | 0.00 | 77 | 1015.6 |
| 20260509201424 | 13 | 49 | 0.0 | 3.2 | 0.00 | 0.00 | 0.00 | 75 | 1015.5 |
| 20260509200422 | 13 | 49 | 0.0 | 3.2 | 0.00 | 0.00 | 0.00 | 74 | 1015.4 |
| 20260509195422 | 13 | 49 | 0.0 | 1.6 | 0.00 | 0.00 | 0.00 | 73 | 1015.5 |
| 20260509194420 | 14 | 49 | 0.0 | 3.2 | 0.00 | 0.00 | 0.00 | 71 | 1015.6 |
| 20260509193857 | 15 | 49 | 0.0 | 4.8 | 0.00 | 0.00 | 0.00 | 69 | 1015.5 |
| 20260509192418 | 15 | 49 | 0.0 | 4.8 | 0.00 | 0.00 | 0.00 | 67 | 1015.4 |
| 20260509191905 | 15 | 51 | 1.6 | 4.8 | 0.00 | 0.00 | 0.00 | 65 | 1015.4 |
| 20260509190418 | 16 | 52 | 0.0 | 3.2 | 0.00 | 0.00 | 0.00 | 64 | 1015.3 |
| 20260509185416 | 16 | 57 | 1.6 | 6.4 | 0.00 | 0.00 | 0.00 | 62 | 1015.3 |
| 20260509184414 | 16 | 61 | 3.2 | 11.3 | 0.00 | 0.00 | 0.00 | 60 | 1015.3 |
| 20260509183415 | 17 | 65 | 3.2 | 11.3 | 0.00 | 0.00 | 0.00 | 60 | 1015.2 |
| 20260509182412 | 17 | 34 | 4.8 | 14.5 | 0.00 | 0.00 | 0.00 | 59 | 1015.1 |
| 20260509181413 | 17 | 46 | 1.6 | 6.4 | 0.00 | 0.00 | 0.00 | 58 | 1015.0 |
| 20260509180414 | 17 | 56 | 1.6 | 8.0 | 0.00 | 0.00 | 0.00 | 57 | 1014.9 |
| 20260509175414 | 18 | 37 | 3.2 | 8.0 | 0.00 | 0.00 | 0.00 | 55 | 1014.8 |
| 20260509174413 | 18 | 40 | 1.6 | 4.8 | 0.00 | 0.00 | 0.00 | 55 | 1014.9 |
| 20260509173413 | 18 | 330 | 1.6 | 11.3 | 0.00 | 0.00 | 0.00 | 54 | 1014.9 |
| 20260509172414 | 18 | 312 | 1.6 | 8.0 | 0.00 | 0.00 | 0.00 | 53 | 1015.0 |
| 20260509171410 | 19 | 30 | 3.2 | 8.0 | 0.00 | 0.00 | 0.00 | 51 | 1015.0 |
| 20260509170410 | 19 | 48 | 1.6 | 6.4 | 0.00 | 0.00 | 0.00 | 50 | 1015.1 |
| 20260509164411 | 19 | 15 | 3.2 | 8.0 | 0.00 | 0.00 | 0.00 | 50 | 1015.1 |
| 20260509163413 | 20 | 61 | 3.2 | 14.5 | 0.00 | 0.00 | 0.00 | 48 | 1015.1 |
| 20260509162411 | 20 | 285 | 3.2 | 8.0 | 0.00 | 0.00 | 0.00 | 51 | 1015.1 |
| 20260509161411 | 19 | 317 | 3.2 | 9.7 | 0.00 | 0.00 | 0.00 | 51 | 1015.1 |
| 20260509160411 | 19 | 331 | 1.6 | 9.7 | 0.00 | 0.00 | 0.00 | 50 | 1015.1 |
| 20260509154410 | 20 | 80 | 3.2 | 8.0 | 0.00 | 0.00 | 0.00 | 49 | 1015.1 |
| 20260509153408 | 20 | 336 | 4.8 | 11.3 | 0.00 | 0.00 | 0.00 | 48 | 1015.0 |
| 20260509152405 | 20 | 40 | 4.8 | 14.5 | 0.00 | 0.00 | 0.00 | 46 | 1015.1 |
| 20260509151846 | 21 | 21 | 3.2 | 11.3 | 0.00 | 0.00 | 0.00 | 48 | 1015.1 |
| 20260509150402 | 21 | 304 | 4.8 | 12.9 | 0.00 | 0.00 | 0.00 | 47 | 1015.2 |
| 20260509145403 | 21 | 14 | 4.8 | 11.3 | 0.00 | 0.00 | 0.00 | 48 | 1015.2 |
| 20260509144404 | 21 | 327 | 4.8 | 11.3 | 0.00 | 0.00 | 0.00 | 48 | 1015.2 |
| 20260509143404 | 21 | 26 | 4.8 | 11.3 | 0.00 | 0.00 | 0.00 | 46 | 1015.4 |
| 20260509142404 | 21 | 12 | 4.8 | 9.7 | 0.00 | 0.00 | 0.00 | 48 | 1015.4 |
| 20260509141402 | 21 | 319 | 4.8 | 12.9 | 0.00 | 0.00 | 0.00 | 48 | 1015.4 |
| 20260509140402 | 21 | 320 | 4.8 | 12.9 | 0.00 | 0.00 | 0.00 | 48 | 1015.6 |
| 20260509135404 | 21 | 307 | 3.2 | 11.3 | 0.00 | 0.00 | 0.00 | 47 | 1015.6 |
| 20260509133402 | 21 | 355 | 3.2 | 9.7 | 0.00 | 0.00 | 0.00 | 48 | 1016.0 |
| 20260509132835 | 21 | 13 | 4.8 | 12.9 | 0.00 | 0.00 | 0.00 | 49 | 1016.0 |
| 20260509131400 | 21 | 313 | 4.8 | 9.7 | 0.00 | 0.00 | 0.00 | 45 | 1016.1 |
| 20260509130358 | 21 | 309 | 4.8 | 9.7 | 0.00 | 0.00 | 0.00 | 48 | 1016.2 |
| 20260509125355 | 20 | 314 | 4.8 | 12.9 | 0.00 | 0.00 | 0.00 | 48 | 1016.4 |
| 20260509124354 | 20 | 66 | 4.8 | 12.9 | 0.00 | 0.00 | 0.00 | 47 | 1016.5 |
| 20260509123352 | 20 | 9 | 4.8 | 11.3 | 0.00 | 0.00 | 0.00 | 48 | 1016.6 |
| 20260509122351 | 20 | 45 | 4.8 | 11.3 | 0.00 | 0.00 | 0.00 | 50 | 1016.6 |
| 20260509121348 | 20 | 5 | 3.2 | 11.3 | 0.00 | 0.00 | 0.00 | 50 | 1016.8 |
| 20260509120348 | 20 | 65 | 4.8 | 12.9 | 0.00 | 0.00 | 0.00 | 50 | 1016.8 |
| 20260509115822 | 19 | 342 | 3.2 | 9.7 | 0.00 | 0.00 | 0.00 | 54 | 1016.8 |
| 20260509114346 | 19 | 313 | 4.8 | 11.3 | 0.00 | 0.00 | 0.00 | 53 | 1016.9 |